DW8871 Weather Reports


Display with metric or nautical units.
time (UTC)temp
F
wind
direction
speed
MPH
gust
MPH
rain 1hr
in
rain 24hr
in
rain mn
in
humidity
%
barometer
mb
20260831174536 91 306 6.0 14.0 0.00 0.00 0.00 52 1014.7
20260831173037 91 265 6.0 15.0 0.00 0.00 0.00 53 1014.7
20260831171538 90 291 6.0 12.0 0.00 0.00 0.00 52 1014.9
20260831170036 89 265 6.0 11.0 0.00 0.00 0.00 52 1015.0
20260831170022 90 255 6.0 10.0 0.00 0.00 0.00 53 1013.8
20260831164541 89 298 4.0 11.0 0.00 0.00 0.00 55 1015.0
20260831163037 88 277 6.0 11.0 0.00 0.00 0.00 55 1014.9
20260831161539 87 10 4.0 13.0 0.00 0.00 0.00 57 1015.0
20260831160039 86 213 4.0 8.0 0.00 0.00 0.00 59 1013.9
20260831160037 86 213 3.0 12.0 0.00 0.00 0.00 59 1015.0
20260831154600 85 264 6.0 11.0 0.00 0.00 0.00 58 1015.0
20260831153039 85 289 5.0 12.0 0.00 0.00 0.00 58 1015.1
20260831151534 85 255 5.0 13.0 0.00 0.00 0.00 60 1014.9
20260831150037 83 347 6.0 11.0 0.00 0.00 0.00 61 1014.9
20260831150030 84 329 5.0 10.0 0.00 0.00 0.00 62 1013.7
20260831144545 82 296 4.0 11.0 0.00 0.00 0.00 63 1014.9
20260831143036 81 306 7.0 15.0 0.00 0.00 0.00 63 1014.9
20260831141533 80 272 7.0 15.0 0.00 0.00 0.00 66 1015.0
20260831140039 78 296 6.0 12.0 0.00 0.00 0.00 67 1015.0
20260831140021 78 265 5.0 10.0 0.00 0.00 0.00 68 1014.0
20260831134535 78 271 7.0 13.0 0.00 0.00 0.00 67 1015.0
20260831133037 77 286 7.0 13.0 0.00 0.00 0.00 67 1014.8
20260831131537 77 295 5.0 14.0 0.00 0.00 0.00 67 1014.9
20260831130039 77 313 5.0 13.0 0.00 0.00 0.00 67 1014.9
20260831130020 77 313 6.0 12.0 0.00 0.00 0.00 68 1013.8
20260831124535 77 247 6.0 11.0 0.00 0.00 0.00 67 1014.9
20260831123039 76 248 5.0 14.0 0.00 0.00 0.00 67 1014.6
20260831121536 76 246 4.0 12.0 0.00 0.00 0.00 67 1014.5
20260831120041 76 309 2.0 10.0 0.00 0.00 0.00 66 1014.4
20260831120033 77 271 3.0 9.0 0.00 0.00 0.00 67 1013.3
20260831114539 76 270 4.0 10.0 0.00 0.00 0.00 66 1013.9
20260831113039 77 280 5.0 11.0 0.00 0.00 0.00 65 1014.0
20260831111536 77 266 6.0 11.0 0.00 0.00 0.00 65 1013.9
20260831110042 78 242 5.0 10.0 0.00 0.00 0.00 64 1013.9
20260831110020 78 292 5.0 9.0 0.00 0.00 0.00 64 1012.8
20260831104536 78 265 4.0 9.0 0.00 0.00 0.00 63 1013.8
20260831103034 78 263 3.0 9.0 0.00 0.00 0.00 63 1013.7
20260831101549 78 298 4.0 11.0 0.00 0.00 0.00 62 1013.3
20260831100052 79 267 5.0 8.0 0.00 0.00 0.00 63 1012.3
20260831100034 78 281 4.0 9.0 0.00 0.00 0.00 62 1013.3
20260831094535 78 269 4.0 11.0 0.00 0.00 0.00 63 1013.0
20260831093039 78 256 3.0 9.0 0.00 0.00 0.00 64 1012.9
20260831091551 78 252 4.0 10.0 0.00 0.00 0.00 63 1013.0
20260831090037 78 247 5.0 11.0 0.00 0.00 0.00 63 1012.7
20260831090023 79 268 5.0 10.0 0.00 0.00 0.00 63 1011.8
20260831084536 78 254 4.0 10.0 0.00 0.00 0.00 62 1012.7
20260831083035 79 240 3.0 7.0 0.00 0.00 0.00 61 1012.8
20260831081539 80 273 3.0 9.0 0.00 0.00 0.00 59 1012.9
20260831080058 80 259 4.0 9.0 0.00 0.00 0.00 59 1012.8
20260831080024 80 271 4.0 8.0 0.00 0.00 0.00 59 1011.8
20260831074535 80 267 2.0 8.0 0.00 0.00 0.00 58 1012.7
20260831073101 81 287 3.0 9.0 0.00 0.00 0.00 57 1012.6
20260831071546 82 282 3.0 7.0 0.00 0.00 0.00 56 1012.6
20260831070036 82 269 3.0 9.0 0.00 0.00 0.00 54 1012.6
20260831070032 83 257 3.0 8.0 0.00 0.00 0.00 55 1011.5
20260831064541 83 263 3.0 10.0 0.00 0.00 0.00 54 1012.5
20260831063043 82 269 4.0 9.0 0.00 0.00 0.00 55 1012.5
20260831061536 83 257 4.0 8.0 0.00 0.00 0.00 55 1012.3
20260831060037 83 266 4.0 9.0 0.00 0.00 0.00 54 1012.3
20260831060024 84 259 4.0 8.0 0.00 0.00 0.00 55 1011.2
20260831054535 84 260 3.0 10.0 0.00 0.00 0.00 54 1012.2
20260831053040 84 256 4.0 9.0 0.00 0.00 0.00 54 1012.2
20260831051539 84 279 4.0 9.0 0.00 0.00 0.00 54 1012.1
20260831050037 84 300 3.0 11.0 0.00 0.00 0.00 53 1012.1
20260831050016 85 300 4.0 8.0 0.00 0.00 0.00 53 1010.9
20260831044546 85 252 5.0 10.0 0.00 0.00 0.00 52 1011.9
20260831043034 85 284 4.0 12.0 0.00 0.00 0.00 52 1011.9
20260831041544 85 256 5.0 11.0 0.00 0.00 0.00 52 1011.8
20260831040035 85 281 5.0 11.0 0.00 0.00 0.00 52 1011.7
20260831040011 86 265 5.0 10.0 0.00 0.00 0.00 53 1010.7
20260831034533 85 186 5.0 13.0 0.00 0.00 0.00 53 1011.6
20260831033039 86 260 5.0 14.0 0.00 0.00 0.00 52 1011.6
20260831031537 85 265 4.0 11.0 0.00 0.00 0.00 53 1011.5
20260831030037 85 236 3.0 10.0 0.00 0.00 0.00 54 1011.6
20260831030030 85 259 3.0 9.0 0.00 0.00 0.00 55 1010.7
20260831024534 85 267 3.0 9.0 0.00 0.00 0.00 53 1011.6
20260831023034 86 271 2.0 7.0 0.00 0.00 0.00 53 1011.5
20260831021545 86 284 2.0 8.0 0.00 0.00 0.00 53 1011.3
20260831020035 86 273 1.0 6.0 0.00 0.00 0.00 53 1011.1
20260831020026 87 270 2.0 5.0 0.00 0.00 0.00 53 1010.0
20260831014534 87 225 1.0 7.0 0.00 0.00 0.00 53 1010.9
20260831013040 87 195 1.0 4.0 0.00 0.00 0.00 53 1010.7
20260831011544 87 0 0.0 2.0 0.00 0.00 0.00 53 1010.5
20260831010053 88 245 1.0 4.0 0.00 0.00 0.00 53 1010.4
20260831010030 88 275 2.0 4.0 0.00 0.00 0.00 53 1009.4
20260831004534 88 0 0.0 3.0 0.00 0.00 0.00 57 1010.3
20260831003034 91 0 0.0 6.0 0.00 0.00 0.00 52 1010.4
20260831001540 92 272 1.0 7.0 0.00 0.00 0.00 47 1010.4
20260831000038 94 213 2.0 6.0 0.00 0.00 0.00 46 1010.3
20260831000016 94 215 2.0 5.0 0.00 0.00 0.00 46 1009.4
20260830234536 95 245 2.0 7.0 0.00 0.00 0.00 46 1010.1
20260830233034 95 198 3.0 10.0 0.00 0.00 0.00 42 1010.1
20260830231537 96 282 6.0 13.0 0.00 0.00 0.00 42 1010.0
20260830230036 96 270 3.0 11.0 0.00 0.00 0.00 45 1009.9
20260830230026 97 260 3.0 10.0 0.00 0.00 0.00 45 1009.0
20260830224536 97 231 4.0 10.0 0.00 0.00 0.00 44 1009.9
20260830223038 97 261 4.0 12.0 0.00 0.00 0.00 43 1010.0
20260830221536 97 238 5.0 12.0 0.00 0.00 0.00 44 1010.0
20260830220054 98 265 7.0 13.0 0.00 0.00 0.00 43 1009.0
20260830220038 97 267 6.0 14.0 0.00 0.00 0.00 43 1010.0
20260830214537 97 205 5.0 14.0 0.00 0.00 0.00 43 1010.1
20260830213038 97 312 7.0 13.0 0.00 0.00 0.00 44 1010.2
20260830211535 97 282 8.0 18.0 0.00 0.00 0.00 42 1010.4
20260830210035 97 254 7.0 14.0 0.00 0.00 0.00 42 1010.4
20260830210020 98 254 7.0 13.0 0.00 0.00 0.00 43 1009.5
20260830204537 97 242 7.0 16.0 0.00 0.00 0.00 46 1010.7
20260830203034 97 263 6.0 18.0 0.00 0.00 0.00 45 1011.0
20260830201536 96 248 7.0 14.0 0.00 0.00 0.00 45 1011.2
20260830200034 96 273 6.0 14.0 0.00 0.00 0.00 46 1011.4
20260830200029 96 282 6.0 13.0 0.00 0.00 0.00 46 1010.3
20260830194537 95 238 7.0 15.0 0.00 0.00 0.00 46 1011.6
20260830193042 95 271 8.0 17.0 0.00 0.00 0.00 47 1011.8
20260830191533 94 274 7.0 18.0 0.00 0.00 0.00 48 1011.8
20260830190036 93 296 9.0 17.0 0.00 0.00 0.00 47 1012.0
20260830190016 94 296 9.0 16.0 0.00 0.00 0.00 47 1011.0
20260830184534 92 253 8.0 20.0 0.00 0.00 0.00 51 1012.1
20260830183037 92 270 6.0 17.0 0.00 0.00 0.00 51 1012.3
20260830181533 91 306 8.0 13.0 0.00 0.00 0.00 52 1012.3
20260830180039 90 290 6.0 16.0 0.00 0.00 0.00 54 1012.4
20260830180030 91 254 5.0 14.0 0.00 0.00 0.00 54 1011.3